Location: Bismarck
(46.7731°N, 100.8200°W)
Time: 06:58:22
(UTC-05:00)

Daily predictions for brighter satellites

Satellite Brightness Start Highest point End
(mag) Time Altitude Azimuth Time Altitude Azimuth Time Altitude Azimuth
Lacrosse 5 rocket 1.1 20:57:29 10° NW 21:01:17 86° NE 21:04:55 10° SE
Cosmos 1633 3.4 20:58:55 10° SSW 21:02:31 57° W 21:06:08 10° N
H-2A R/B 2.8 21:00:56 10° SSE 21:04:47 67° ENE 21:08:42 10° N
Cosmos 1821 Rocket 4.0 20:59:05 10° S 21:05:11 83° E 21:11:19 10° N
Cosmos 1315 Rocket 3.9 21:01:31 10° SSW 21:05:26 51° WNW 21:09:27 10° N
Cosmos 1605 Rocket 4.2 21:02:09 10° SSE 21:08:16 53° E 21:14:20 10° NNE
USA 215 4.2 21:02:30 10° ENE 21:08:28 40° NNE 21:14:27 10° NW
Cosmos 2369 3.9 21:04:15 10° S 21:09:39 49° ESE 21:15:08 10° NE
Cosmos 1980 Rocket 3.8 21:11:19 10° SE 21:14:10 14° E 21:17:02 10° ENE
CZ-4 DEB 3.7 21:11:44 10° SE 21:14:32 30° ENE 21:17:22 10° N
Meteor 1-12 Rocket 4.5 21:14:57 10° SSE 21:20:29 52° E 21:26:09 10° NNE
NOSS 3-4 (A) 4.4 21:16:16 10° NW 21:23:06 58° WSW 21:30:19 10° SSE
NOSS 3-4 (C) 4.4 21:16:23 10° NW 21:23:13 58° WSW 21:30:27 10° SSE
CZ-2D R/B 3.6 21:19:41 10° S 21:23:32 68° W 21:27:26 10° NNW
Cosmos 1461 3.5 21:20:02 10° NW 21:24:03 52° WSW 21:27:52 10° SSE
H-2A R/B 3.2 21:23:38 12° ESE 21:26:41 26° ENE 21:30:07 10° N
Cosmos 2208 Rocket 4.1 21:21:47 10° SSW 21:27:07 86° ESE 21:32:34 10° NNE
Cosmos 1626 Rocket 3.5 21:22:44 10° N 21:27:09 67° E 21:31:30 10° SSE
Cosmos 1939 Rocket 3.5 21:26:46 10° SE 21:30:36 41° ENE 21:34:33 10° N
Cosmos 2298 Rocket 4.1 21:26:04 10° NNW 21:31:22 62° ENE 21:36:31 11° SE
Cosmos 2123 Rocket 4.3 21:28:12 10° NNW 21:34:22 72° W 21:40:30 10° S
Cosmos 1455 Rocket 3.3 21:30:05 10° SSW 21:34:24 71° W 21:38:47 10° N
Cosmos 1602 Rocket 3.5 21:31:33 10° N 21:36:03 82° E 21:40:29 10° S
Cosmos 2263 Rocket 4.2 21:35:01 10° N 21:37:49 14° NE 21:40:37 10° ENE
Cosmos 1346 Rocket 4.0 21:34:15 10° NNW 21:38:00 43° W 21:41:46 10° SSW
FENGYUN 3A 4.4 21:33:17 10° S 21:38:30 55° W 21:43:46 10° NNW
Cosmos 2227 Rocket 2.8 21:33:24 10° NNW 21:38:57 57° WSW 21:44:27 10° S
Cosmos 1500 3.5 21:38:27 10° SSE 21:42:01 42° E 21:45:37 10° NNE
Envisat 3.2 21:37:26 11° SE 21:42:10 54° ENE 21:47:08 10° N
ATLAS CENTAUR R/B 4.3 21:38:23 10° W 21:42:24 24° NW 21:46:19 10° NNE
Cosmos 1937 Rocket 3.8 21:37:19 10° NNW 21:42:29 52° ENE 21:46:32 16° SE
Cosmos 1570 Rocket 4.5 21:37:39 10° SSW 21:42:55 67° WNW 21:48:11 10° NNE
Cosmos 1656 3.8 21:37:49 10° S 21:43:14 51° ESE 21:48:36 10° NE
Iridium 4 Rocket 3.3 21:42:45 10° N 21:47:59 84° E 21:52:42 10° S
Cosmos 2084 3.3 21:44:24 10° NW 21:48:26 86° SW 21:51:24 19° SE
ALOS 3.8 21:46:16 10° SSW 21:50:34 36° W 21:54:55 10° NNW
H-2A R/B 3.9 21:48:51 11° E 21:50:53 14° ENE 21:53:22 10° NNE
Cosmos 1459 Rocket 4.2 21:45:16 10° SSE 21:50:59 46° E 21:56:46 10° NNE
Cosmos 1340 3.6 21:48:20 10° N 21:51:46 32° ENE 21:53:19 23° ESE
Cosmos 220 Rocket 4.4 21:49:17 10° NNW 21:53:28 60° WSW 21:57:34 10° S
Cosmos 2297 Rocket 2.7 21:48:52 10° NNW 21:54:26 60° WSW 21:59:58 10° S
RESURS DK-1 2.5 21:50:50 10° NNW 21:54:56 59° ENE 21:57:19 24° SE
NOSS 7 (H) 4.3 21:52:35 10° SW 21:55:53 87° SE 21:59:28 10° NE
Cosmos 990 Rocket 4.3 21:51:28 10° NNW 21:56:36 51° ENE 21:59:50 22° SE
Cosmos 2150 Rocket 3.9 21:52:40 10° NNW 21:57:51 88° ENE 22:02:01 16° SSE
USA 186 3.9 21:56:13 10° SSW 21:58:54 24° W 22:01:26 10° NW
Cosmos 1515 4.0 21:58:21 10° NNW 22:02:12 67° W 22:05:50 11° S
YAOGAN 6 3.4 22:01:27 27° ESE 22:02:38 34° ENE 22:06:02 10° N
Cosmos 2058 Rocket 4.3 22:03:28 23° E 22:04:07 24° E 22:07:43 10° NE
SPOT 1/Viking Rocket 4.2 22:07:00 24° ESE 22:09:28 38° ENE 22:14:16 10° N
Cosmos 1606 Rocket 3.9 22:11:06 28° SE 22:12:54 42° E 22:17:06 10° NNE
ERS-1 Rocket 3.3 22:08:03 10° S 22:13:01 64° WSW 22:18:02 10° NNW
Cosmos 1743 2.7 22:15:07 25° S 22:17:13 62° E 22:21:06 10° NNE
MetOp-A 4.1 22:15:31 25° SSE 22:18:42 67° ENE 22:24:03 10° N
Cosmos 1898 Rocket 4.0 22:14:27 10° NNW 22:19:41 59° WSW 22:23:45 16° S
Tiangong 1 2.0 22:17:10 10° WSW 22:19:53 33° SSW 22:19:53 33° SSW
Cosmos 1802 Rocket 4.0 22:14:42 10° S 22:21:02 68° E 22:27:26 10° NNE
Lacrosse 5 2.0 22:20:03 10° NW 22:25:04 65° SW 22:27:19 32° SSE
Cosmos 1763 Rocket 3.7 22:23:19 27° SSE 22:25:40 45° ESE 22:30:30 10° NNE
Cosmos 1125 Rocket 4.2 22:20:56 10° N 22:25:49 39° ENE 22:27:33 30° E
BREEZE-M DEB (TANK) 2.0 22:26:34 10° WNW 22:28:50 61° SSW 22:29:27 49° SSE
SPOT 5 2.9 22:30:12 27° SSE 22:33:00 85° WSW 22:37:50 10° NNW
Cosmos 1697 Rocket 2.7 22:29:02 10° SSW 22:34:42 87° WNW 22:40:24 10° NNE
Cosmos 2016 Rocket 3.9 22:31:45 17° S 22:36:30 73° E 22:42:42 10° NNE
Cosmos 1726 Rocket 3.5 22:35:27 42° SSE 22:36:43 64° E 22:41:06 10° NNE
Cosmos 1842 3.2 22:35:28 10° N 22:39:22 64° ENE 22:39:44 60° ESE
Cosmos 468 Rocket 4.2 22:34:45 10° SSW 22:39:51 70° WNW 22:45:01 10° NNE
Lacrosse 5 rocket 3.6 22:38:13 10° W 22:39:55 13° WSW 22:41:15 11° SW
SL-08 RB Rocket 4.0 22:39:37 43° ESE 22:40:35 51° ENE 22:45:06 10° N
PSLV R/B 3.2 22:40:55 74° NNW 22:40:55 74° NNW 22:43:45 10° NNW
SL-16 R/B 3.4 22:42:47 24° E 22:42:47 24° E 22:46:10 10° NE
NOAA 11 4.2 22:42:28 39° SE 22:44:30 70° ENE 22:49:58 10° N
Cosmos 841 Rocket 3.4 22:45:13 35° S 22:47:17 61° ESE 22:52:26 10° NNE
Cosmos 1825 Rocket 4.2 22:43:09 10° NNW 22:47:29 53° W 22:49:37 27° SSW
Cosmos 2173 Rocket 4.3 22:42:51 10° SSW 22:49:12 70° W 22:55:32 10° N
Cosmos 1814 Rocket 4.3 22:43:58 10° SSW 22:49:17 70° WNW 22:54:36 10° NNE
USA 215 3.3 22:47:44 32° ESE 22:50:58 72° NNE 22:57:30 10° NW
CZ-4 SHROUD 3.6 22:51:30 59° NW 22:51:30 59° NW 22:54:08 10° NNW
Landsat 7 4.2 22:51:09 44° E 22:51:43 47° ENE 22:56:17 10° N
ARGOS 3.0 22:53:44 45° SSE 22:55:29 84° ENE 23:00:54 10° NNW
Cosmos 1953 Rocket 4.1 22:52:47 10° NNW 22:57:10 57° W 22:58:41 37° SSW
Cosmos 1980 Rocket 2.1 22:51:37 10° SSW 22:57:18 88° ESE 23:03:03 10° NNE
H-2A R/B 3.4 23:00:48 22° SW 23:02:36 32° W 23:06:20 10° NNW
CZ-4 R/B 4.1 22:58:08 10° NNE 23:02:18 48° E 23:02:18 48° E
Cosmos 1864 Rocket 4.3 23:01:47 37° S 23:04:21 79° E 23:10:30 10° N
Meteor 2-5 Rocket 4.2 22:59:46 10° N 23:05:27 44° ENE 23:06:17 42° E
Tsikada Rocket 4.0 22:59:21 10° N 23:05:50 89° WSW 23:08:19 41° S
Cosmos 1666 2.8 23:06:52 72° NW 23:06:52 72° NW 23:10:28 10° N
Terra 2.2 23:06:58 46° ENE 23:07:03 46° ENE 23:11:38 10° N
Meteor 1-15 Rocket 4.2 23:07:18 44° S 23:09:17 78° E 23:15:10 10° NNE
IGS 5A 4.3 23:13:54 40° NE 23:13:54 40° NE 23:17:11 10° N
Cosmos 372 Rocket 4.0 23:10:24 10° NNW 23:15:30 62° ENE 23:15:49 60° E
ASTEX 1 4.2 23:11:22 10° N 23:16:13 50° WNW 23:18:51 25° SW
GP-B 4.1 23:12:35 10° NNE 23:15:46 35° NE 23:15:46 35° NE
Cosmos 2228 3.0 23:18:42 75° N 23:18:42 75° N 23:22:39 10° N
Cosmos 2263 Rocket 2.3 23:17:30 10° NNW 23:23:00 58° ENE 23:23:33 56° E
BREEZE-M DEB (TANK) 3.8 23:03:45 10° WNW 23:23:09 80° SSW 23:24:47 53° SE
Cosmos 2346 Rocket 4.4 23:19:53 10° N 23:26:08 73° E 23:27:05 62° SE
Spot 4 4.2 23:28:57 53° NE 23:28:57 53° NE 23:33:15 10° N
Meteor 1-24 Rocket 4.4 23:22:56 10° N 23:28:39 41° ENE 23:28:57 41° ENE
Cosmos 2322 Rocket 2.2 23:29:50 64° E 23:29:50 64° E 23:35:01 10° NNE
H-2A R/B 1.8 23:29:30 86° SSE 23:29:37 89° E 23:34:35 10° NNW
Cosmos 1725 Rocket 4.3 23:32:30 31° SSW 23:35:33 62° WNW 23:41:46 10° N
Cosmos 405 Rocket 3.9 23:34:10 10° NNW 23:36:45 40° NNW 23:36:45 40° NNW
CZ-4C R/B 3.9 23:38:28 66° NW 23:38:28 66° NW 23:42:23 10° NNW
CZ-4B R/B 3.7 23:36:39 10° N 23:41:20 59° WNW 23:41:58 54° WSW
Cosmos 2058 Rocket 4.4 23:40:44 31° WSW 23:41:54 37° WNW 23:46:08 10° N
GEOS 3 Rocket 3.8 23:41:51 10° NE 23:46:01 59° NE 23:46:01 59° NE
Meteor 2-17 Rocket 4.5 23:48:13 57° SW 23:49:26 73° W 23:55:31 10° N
